World > North America > United States > Illinois > Barnett Township

Barnett Township, IL Hourly Weather Conditions

Feedback E-mail the Weather

Quick WX

Barnett Township, IL Weather Maps

°F °C°F °C
Barnett Township Weather Map
UTC Time: 2/9/2023, 11:35
Your Time:

Barnett Township, IL Regional Weather

Expires:202302091200;;060033
ASUS43 KLOT 091110
RWRIL 

ILLINOIS REGIONAL WEATHER ROUNDUP
NATIONAL WEATHER SERVICE CHICAGO/ROMEOVILLE IL
500 AM CST THU FEB 09 2023

NOTE: "FAIR" INDICATES FEW OR NO CLOUDS BELOW 12,000 FEET WITH NO
SIGNIFICANT WEATHER AND/OR OBSTRUCTIONS TO VISIBILITY.

* THESE STATIONS ARE NOT UNDER NWS QUALITY CONTROL. THEY ALSO MAY NOT
  REPORT WEATHER SUCH AS PRECIPITATION OR FOG.


ILZ028>032-037-038-041>044-048-051>054-059>061-091200-
CENTRAL ILLINOIS
  
CITY           SKY/WX    TMP DP  RH WIND       PRES   REMARKS
PONTIAC        LGT RAIN  39  39 100 NE18      29.54F WCI  30          
BLOOMINGTON    CLOUDY    40  40 100 E15       29.50F FOG              
DECATUR        RAIN      50  50 100 SE15      29.49F FOG              
PEORIA         LGT RAIN  40  40 100 E16G28    29.49F                  
LACON*         LGT SNOW  38  38 100 NE15G22   29.51F WCI  29          
LINCOLN*       HVY RAIN  45  45 100 E9        29.48F                  
SPRINGFIELD    LGT RAIN  50  48  93 SE16      29.45F                  
TAYLORVILLE    MOCLDY    54  53  97 S15       29.48F                  
$$


SKY/WX - Weather  TMP - Temperature  DP - Dew Point  RH - Humidity
WIND - Wind Direction/Speed PRES - Barometric Pressure VSB - Visibility
WCI - Wind Chill Index E13G22 Wind - East Wind 13 mph/Gusts of 22 mph

Trending Headlines

Trending Entertainment Headlines

Barnett Township Radar Loop

Use the map search tool if you want to place a location marker on the radar map...

Barnett Township Quick Facts

National Two Day Weather Forecast


E-mail the Barnett Township Weather Forecast

Voice your opinion or tell us about page issues...